cubair logo

For once you have tasted flight you will walk the earth with your eyes turned skywards,
for there you have been and there you will long to return.


"Leonardo da Vinci"

Welcome To CubAir Flight!

Cub Air Flight was founded in 2006, by Steve and Sharon Krog. Cub Air Flight school uses vintage Piper J3 Cub aircraft to instruct in, following a philosophy that “old school is still cool.” Cub Air Flight believes that these fine classic airplanes make better pilots by requiring more attention and flying skill than newer airplanes. We at Cub Air Flight hold that flying a vintage airplane is as much an art as it is a science.

The Piper J3 Cub is revered among aviators as a truly classic and iconic airplane. It has served as a trainer to more pilots than almost any airplane, earning a reputation as easy to fly but yet challenging enough to force students to continually better themselves. Cub Air uses two J3 Cubs, restored and maintained with the same attention to detail as a lovingly restored classic car. Cub Air also uses a Piper Cherokee for training requiring an aircraft with more advanced instruments.

Come fly with us and feel the freedom of
flying, the way it's supposed to be!


"Old School Is Still Cool!"

 

Our Instructors

Steve Krog
John Palese

Find Us Here!

Hartford Municipal

Airport (KHXF)

4200 Highway U

Hartford, WI 53027

Our Staff

Steve Krog
Sharon Krog
Jamie Weber
Luke Lachendro
Chris Hibben

Oshkosh Weather

[Source: ADDS]
METAR
KOSH 291653Z 28013G22KT 10SM CLR 27/11 A2991 RMK AO2 SLP112 T02720106 =
TAF
KOSH 291138Z 2912/3012 26008KT P6SM SCT035 BKN080 TEMPO 2912/2913 BKN035 FM291300 26013G25KT P6SM SCT070 FM291600 26020G32KT P6SM SCT100 FM300000 25012G20KT P6SM SKC FM300300 25006KT P6SM SKC =

West Bend Weather

[Source: ADDS]
METAR
KETB 291735Z AUTO 26011G23KT 10SM CLR 27/08 A2995 RMK AO2 =
TAF

Juneau Weather

[Source: ADDS]
METAR
KUNU 291735Z AUTO 25014G19KT 10SM CLR 26/12 A2997 RMK AO2 T02580124 =
TAF

Fond Du Lac Weather

[Source: ADDS]
METAR
KFLD 291653Z AUTO 26012G19KT 10SM CLR 28/10 A2993 RMK AO2 SLP129 T02780100 =
TAF